FW2523 Weather Reports


time (UTC)temp
C
wind
direction
speed
KPH
gust
KPH
rain 1hr
cm
rain 24hr
cm
rain mn
cm
humidity
%
barometer
mb
20260906051612 21 360 0.0 0.0 0.00 0.15 0.15 47 1012.4
20260906050059 21 360 0.0 0.0 0.00 0.15 0.15 46 1012.6
20260906044607 21 360 0.0 0.0 0.00 0.15 0.15 46 1012.6
20260906043056 21 360 0.0 0.0 0.00 0.15 0.15 46 1012.7
20260906041554 21 360 0.0 0.0 0.00 0.15 0.15 45 1012.8
20260906040133 21 360 0.0 0.0 0.00 0.15 0.15 44 1012.9
20260906034603 21 360 0.0 0.0 0.00 0.15 0.15 44 1013.0
20260906033104 21 360 0.0 0.0 0.00 0.15 0.15 43 1013.1
20260906031520 22 360 0.0 0.0 0.00 0.15 0.15 44 1013.2
20260906030019 22 360 0.0 0.0 0.00 0.15 0.15 44 1012.9
20260906024515 22 360 0.0 0.0 0.00 0.15 0.15 43 1013.1
20260906023015 22 360 0.0 0.0 0.00 0.15 0.15 44 1012.6
20260906021514 22 360 0.0 0.0 0.00 0.15 0.15 47 1012.4
20260906020014 22 360 0.0 0.0 0.00 0.15 0.15 51 1012.3
20260906014543 22 360 0.0 0.0 0.00 0.15 0.15 52 1012.2
20260906013042 22 360 0.0 0.0 0.00 0.15 0.15 53 1012.2
20260906011540 23 360 0.0 0.0 0.00 0.15 0.15 54 1012.3
20260906010040 23 360 0.0 0.0 0.00 0.15 0.15 57 1012.0
20260906004540 23 360 0.0 1.6 0.00 0.15 0.15 58 1012.0
20260906003038 23 360 0.0 0.0 0.00 0.15 0.15 61 1011.9
20260906001537 24 360 0.0 0.0 0.00 0.15 0.15 62 1011.8
20260906000034 25 360 0.0 0.0 0.00 0.15 0.15 62 1011.8
20260905234533 25 360 0.0 0.0 0.00 0.15 0.15 60 1011.6
20260905233034 26 360 0.0 0.0 0.00 0.15 0.15 59 1011.4
20260905231531 26 295 0.0 0.0 0.00 0.15 0.15 58 1011.0
20260905230030 26 295 0.0 3.2 0.00 0.15 0.15 57 1011.3
20260905224604 26 292 0.0 4.8 0.00 0.15 0.15 58 1011.2
20260905223129 26 312 1.6 4.8 0.00 0.15 0.15 57 1011.1
20260905221526 25 304 0.0 3.2 0.00 0.15 0.15 58 1011.2
20260905220025 25 294 0.0 4.8 0.00 0.15 0.15 57 1011.2
20260905214525 25 304 0.0 6.4 0.00 0.15 0.15 56 1011.4
20260905213024 24 281 0.0 0.0 0.00 0.15 0.15 55 1011.4
20260905211538 23 360 0.0 6.4 0.00 0.15 0.15 54 1011.8
20260905210036 23 360 0.0 0.0 0.03 0.15 0.15 42 1012.0
20260905204522 22 360 0.0 1.6 0.03 0.15 0.15 43 1012.2
20260905203022 22 360 0.0 0.0 0.03 0.15 0.15 45 1012.4
20260905201521 22 360 0.0 0.0 0.03 0.15 0.15 47 1012.3
20260905200022 22 360 0.0 1.6 0.08 0.13 0.13 54 1012.3
20260905194511 22 360 0.0 0.0 0.13 0.13 0.13 59 1011.8
20260905193010 23 360 1.6 8.0 0.13 0.13 0.13 63 1012.8
20260905191607 25 276 0.0 4.8 0.13 0.13 0.13 61 1011.1
20260905184559 34 80 4.8 16.1 0.00 0.00 0.00 36 1011.8
20260905183048 36 284 0.0 4.8 0.00 0.00 0.00 33 1011.3
20260905181541 36 300 0.0 1.6 0.00 0.00 0.00 33 1011.3
20260905180043 36 302 0.0 8.0 0.00 0.00 0.00 33 1011.7
20260905174536 36 291 0.0 6.4 0.00 0.00 0.00 33 1012.3
20260905173034 36 341 0.0 9.7 0.00 0.00 0.00 36 1012.5
20260905171559 35 294 0.0 8.0 0.00 0.00 0.00 38 1012.7
20260905170111 35 186 0.0 0.0 0.00 0.00 0.00 38 1012.9
20260905164604 35 292 0.0 3.2 0.00 0.00 0.00 40 1013.2
20260905163054 33 18 0.0 6.4 0.00 0.00 0.00 41 1013.3
20260905161606 33 312 0.0 6.4 0.00 0.00 0.00 44 1013.4
20260905160054 33 166 0.0 0.0 0.00 0.00 0.00 47 1013.6
20260905154602 33 280 0.0 0.0 0.00 0.00 0.00 47 1013.7
20260905153051 32 319 0.0 4.8 0.00 0.00 0.00 50 1013.6
20260905151551 32 304 0.0 0.0 0.00 0.00 0.00 50 1013.6
20260905150052 31 304 0.0 1.6 0.00 0.00 0.00 54 1013.8
20260905144550 30 292 0.0 1.6 0.00 0.00 0.00 55 1013.9
20260905143019 30 242 0.0 0.0 0.00 0.00 0.00 55 1013.8
20260905141519 28 293 0.0 0.0 0.00 0.00 0.00 57 1014.0
20260905140052 28 298 0.0 0.0 0.00 0.00 0.00 56 1013.9
20260905134552 27 302 0.0 3.2 0.00 0.00 0.00 54 1013.9
20260905133024 26 322 0.0 3.2 0.00 0.00 0.00 54 1014.1
20260905131524 26 305 0.0 0.0 0.00 0.00 0.00 51 1014.2
20260905130046 25 165 0.0 0.0 0.00 0.00 0.00 51 1014.1
20260905124545 24 360 0.0 0.0 0.00 0.00 0.00 47 1014.2
20260905123051 23 360 0.0 0.0 0.00 0.00 0.00 43 1014.3
20260905121552 23 360 0.0 0.0 0.00 0.00 0.00 45 1014.2
20260905120041 22 360 0.0 0.0 0.00 0.00 0.00 45 1014.0
20260905114549 22 360 0.0 0.0 0.00 0.00 0.00 44 1014.0
20260905113038 22 360 0.0 0.0 0.00 0.00 0.00 44 1013.8
20260905111538 22 360 0.0 0.0 0.00 0.00 0.00 44 1013.5
20260905110037 22 360 0.0 0.0 0.00 0.00 0.00 44 1013.0
20260905104540 22 360 0.0 0.0 0.00 0.00 0.00 43 1012.9
20260905103028 22 360 0.0 0.0 0.00 0.00 0.00 44 1012.8
20260905101533 22 360 0.0 0.0 0.00 0.00 0.00 47 1012.7
20260905100058 22 360 0.0 0.0 0.00 0.00 0.00 48 1012.6
20260905094532 22 360 0.0 0.0 0.00 0.00 0.00 49 1012.6
20260905093057 23 360 0.0 0.0 0.00 0.00 0.00 53 1012.7
20260905091601 23 360 0.0 0.0 0.00 0.00 0.00 53 1012.7
20260905090021 23 360 0.0 0.0 0.00 0.00 0.00 52 1012.6
20260905084518 23 360 0.0 0.0 0.00 0.00 0.00 53 1012.8
20260905083014 23 360 0.0 0.0 0.00 0.00 0.00 53 1012.9
20260905081513 23 360 0.0 0.0 0.00 0.00 0.00 54 1013.0
20260905080014 23 360 0.0 0.0 0.00 0.00 0.00 55 1013.1
20260905074520 23 360 0.0 0.0 0.00 0.00 0.00 55 1013.3
20260905073009 23 360 0.0 0.0 0.00 0.00 0.00 58 1013.4
20260905071505 24 360 0.0 0.0 0.00 0.00 0.00 59 1013.6
20260905070004 24 360 0.0 0.0 0.00 0.00 0.00 59 1013.6
20260905064503 24 360 0.0 0.0 0.00 0.00 0.00 60 1013.8
20260905063059 25 360 0.0 0.0 0.00 0.00 0.00 60 1014.0
20260905061606 25 360 0.0 0.0 0.00 0.00 0.00 60 1014.0
20260905060059 25 360 0.0 0.0 0.00 0.00 0.00 60 1014.2
20260905054708 25 360 0.0 0.0 0.00 0.00 0.00 61 1014.3
20260905053054 25 360 0.0 0.0 0.00 0.00 0.00 61 1014.3